GONETS D1 6

Satellite information

Favourite Embed

Satellite Type and Status

PAYLOADIN ORBIT

Key statistics

Satellite GONETS D1 6 at a glance.

Uptime

10482

Days in orbit

Revolutions

≈ 12.6

Per day

Orbit

LEO

Low Earth Orbit

Inclination

82.6

Latest

Satellite identification and parameters

Extended collection of information and parameters for GONETS D1 6.

Object identification

Identified? True

Debris? False

Object name: GONETS D1 6

International designator: 1997-006F

Object number (NORAD): 24730

Object ID (CCSDS): 24730

Country: COMMONWEALTH OF INDEPENDENT STATES (CIS)

Current information (Y/N): Y

RCS size: MEDIUM

Orbital parameters

Period: 114.06 minutes

Inclination: 82.6105 deg

SMA: 7790.818 km

Apoapsis: 1415.469 km

Periapsis: 1409.897 km

RAAN: 45.4642 deg

Eccentricy: 0.00035761

Argument of periapsis: 119.024 deg

Mean anomaly: 241.121 deg

Mean motion: 12.62490652 rev/day

Mean motion (dot): 0.00000038 rev/day2

B* drag term: 0.00015271023 1/REarth

Two-line elements (TLE)

Creation date: Oct. 27, 2025, 2:46 a.m.

Reference frame: TEME

Reference center: EARTH

Epoch: Oct. 26, 2025, 7:18 p.m. UTC

TLE line 0: 0 GONETS D1 6

TLE line 1: 1 24730U 97006F 25299.80462740 .00000038 00000-0 15271-3 0 9996

TLE line 2: 2 24730 82.6105 45.4642 0003576 119.0240 241.1210 12.62490652322222

Live tracking on map

Real-time ground track for satellite GONETS D1 6.

In-orbit conjunctions

There are no conjunctions computed for GONETS D1 6, at the moment. Check back to stay up to date, as we update our databases every day.

Go to all conjunctions

Associated space launch

Gonets- satellite were the civilian derivate of the military Strela-3 satellite system. The Gonets system was offered to support international health organizations to meet their global communications needs for the transfer of medical data and records to remote sites. Strela-3 was second generation of strategic store-dump military communications satellite. Development of this generation to replace the first generation Strela-1M and Strela-2M satellites began in 1973.

GONETS D1 6 was lifted into orbit during the mission ‘Tsiklon-3 | Strela-3 116 to 118 & Gonets 4 to 6’, on board a Tsiklon-3 space rocket.

The launch took place on Feb. 14, 1997, 3:47 a.m. from 32/1.

For more information about the launch, click the button.

Launch to space Tsiklon-3 | Strela-3 116 to 118 & Gonets 4 to 6
Tsiklon-3 | Strela-3 116 to 118 & Gonets 4 to 6

Agency: N/A

Status: Launch Successful

Launch date: Feb. 14, 1997, 3:47 a.m. UTC

Rocket: Tsiklon-3

Launch pad: 32/1

Location: Plesetsk Cosmodrome, Russian Federation

...

Latest news about this satellite

There are no fresh news available about this satellite. Check back as we update our databases every day.


Newsletter sign-up

Weekly statistics, charts and insights to help you stay on top of the space industry.